Historique des mesures à Cassis (13260), France
Quotidien Résumé Janvier 11, 2017 Unités:  US    Métrique   Métrique/US
« Précédent (Jour)
Suivant (Jour) »
Quotidien Hebdomadaire Mensuel Annuel Période au choix
  Maximum: Minimum: Moyenne:
Température: 32 °F 40.6 °F 45 °F
Point de rosée: 32 °F 33.3 °F 34.9 °F
Humidité: Humidity % 55 % 65 %
Vitesse du vent: WindSpeedKMH mph 0.0 mph 1.3 mph
Rafales: WindSpeedGustKMH mph - -
Vent:- - West
Pression: 0 in 29.8 in -
Précipitations: 0 in    
Historical Graphs
 
 
Mesures pour : Janvier 11, 2017
Heure Temperature Point de rosée Pression Vent Vitesse du vent Rafales Humidité Pluie (par heure) Conditions
32 °F 32 °F 0 in Calm     Humidity % 0 in SoftwareType W/m2
00:11 44.2 °F 36.9 °F 29.8 in Calm     75 % 0 in open2300-1.11 W/m2
01:10 44.4 °F 36.7 °F 29.8 in Calm     74 % 0 in open2300-1.11 W/m2
02:11 43.5 °F 35.8 °F 29.8 in Calm     74 % 0 in open2300-1.11 W/m2
03:10 43.2 °F 35.4 °F 29.9 in Calm     74 % 0 in open2300-1.11 W/m2
04:11 43 °F 35.2 °F 29.9 in Calm     74 % 0 in open2300-1.11 W/m2
05:10 41.9 °F 34.5 °F 29.9 in Calm     75 % 0 in open2300-1.11 W/m2
06:11 41.4 °F 33.6 °F 29.9 in Calm     74 % 0 in open2300-1.11 W/m2
07:10 40.6 °F 33.3 °F 29.9 in Calm     75 % 0 in open2300-1.11 W/m2
08:11 40.6 °F 33.6 °F 30 in Calm     76 % 0 in open2300-1.11 W/m2
09:10 41.9 °F 34.5 °F 30 in Calm     75 % 0 in open2300-1.11 W/m2
10:11 43.7 °F 35.6 °F 30 in Calm     73 % 0 in open2300-1.11 W/m2
11:10 44.8 °F 36 °F 30 in NW 6.4 mph 6.4 mph 71 % 0 in open2300-1.11 W/m2
12:11 46.8 °F 34.3 °F 30 in Calm   5.8 mph 62 % 0 in open2300-1.11 W/m2
13:10 47.7 °F 36 °F 30 in North 2.1 mph 10.1 mph 64 % 0 in open2300-1.11 W/m2
14:11 49.1 °F 34.5 °F 30 in NW 7.9 mph 9.7 mph 57 % 0 in open2300-1.11 W/m2
15:10 49.1 °F 33.6 °F 30 in NW 1.4 mph 6.4 mph 55 % 0 in open2300-1.11 W/m2
16:11 49.8 °F 34.2 °F 30 in NNW 8.7 mph 8.7 mph 55 % 0 in open2300-1.11 W/m2
17:10 49.6 °F 35.1 °F 30 in Calm     57 % 0 in open2300-1.11 W/m2
18:12 47.3 °F 34.5 °F 30 in Calm   2.6 mph 61 % 0 in open2300-1.11 W/m2
19:10 47.5 °F 35.4 °F 30 in NW 2.6 mph 5.5 mph 63 % 0 in open2300-1.11 W/m2
20:11 48.6 °F 35.8 °F 30 in Calm   4.3 mph 61 % 0 in open2300-1.11 W/m2
21:10 48.9 °F 35.8 °F 30 in WNW 1.8 mph 8.2 mph 60 % 0 in open2300-1.11 W/m2
22:11 48.9 °F 36.5 °F 30 in Calm   1.1 mph 62 % 0 in open2300-1.11 W/m2
Observations météo à CASSIS
WU-History script by Weather Underground - 1 mb